Regional Weather Roundup
Issued by NWS

Home | Current Version | Previous Version | Text Only | Print | Product List | Glossary Off
Versions: 1 2 3 4 5 6 7 8 9 10 11 12 13 14 15 16 17 18 19 20 21 22 23 24 25 26 27 28 29 30 31 32 33 34 35 36 37 38 39 40 41 42 43 44 45 46 47 48 49 50

000
ASUS45 KPSR 271300
RWRAZ

PRELIMINARY ARIZONA REGIONAL HOURLY WEATHER ROUNDUP
NATIONAL WEATHER SERVICE PHOENIX AZ
600 AM MST FRI FEB 27 2015

NOTE: FAIR INDICATES FEW OR NO CLOUDS BELOW 12,000 FEET WITH NO
SIGNIFICANT WEATHER AND/OR OBSTRUCTIONS TO VISIBILITY.

AZZ001>003-036-271400-
NORTHWEST ARIZONA

CITY           SKY/WX    TMP DP  RH WIND       PRES   REMARKS
BULLHEAD CITY  PTCLDY    59  30  33 N17       29.74F
KINGMAN        CLOUDY    39  27  62 E7        29.78R WCI  34
$$

AZZ004>008-015-016-018-271400-
NORTH CENTRAL ARIZONA

CITY           SKY/WX    TMP DP  RH WIND       PRES   REMARKS
GRAND CANYON   MOCLDY    24  22  91 CALM      29.81S
PRESCOTT       CLOUDY    37  23  56 CALM      29.79F
FLAGSTAFF      NOT AVBL
PAYSON         PTCLDY    37  23  56 CALM      29.84S
PAGE           CLOUDY    38  33  82 SE5       29.82S WCI  34
$$

AZZ009>014-017-271400-
NORTHEAST ARIZONA

CITY           SKY/WX    TMP DP  RH WIND       PRES   REMARKS
WINSLOW        NOT AVBL
SAINT JOHNS    CLEAR     31  27  85 SE7       29.83R WCI  24
WINDOW ROCK    PTCLDY    22  18  85 CALM      29.85R
SHOW LOW       PTCLDY    32  19  59 S12       29.86S WCI  23
$$

AZZ023-271400-
GREATER PHOENIX AREA

CITY           SKY/WX    TMP DP  RH WIND       PRES   REMARKS
PHOENIX        PTCLDY    50  33  52 E8        29.73S
GLENDALE       CLEAR     46  34  61 CALM      29.76
LUKE AFB       CLEAR     44  34  66 NW7       29.74R
DEER VALLEY    CLEAR     52  27  38 E7        29.74R
SCOTTSDALE     CLEAR     50  31  48 CALM      29.76R
MESA-FALCON    PTCLDY    48  28  46 N6        29.75
MESA-GATEWAY   CLEAR     43  30  61 SE8       29.78R
CHANDLER       PTCLDY    48  30  49 NE8       29.76
$$

AZZ027-028-271400-
SOUTHWEST MARICOPA COUNTY AND PINAL COUNTY

CITY           SKY/WX    TMP DP  RH WIND       PRES   REMARKS
CASA GRANDE    CLEAR     45  27  49 NE6       29.77R
$$

AZZ503-504-507>509-271400-
SOUTHEAST ARIZONA

CITY           SKY/WX    TMP DP  RH WIND       PRES   REMARKS
TUCSON         CLEAR     48  24  39 SE13      29.82S
DAVIS-MONTHAN  CLEAR     46  25  43 SE7       29.81R
RYAN FIELD       N/A     45  32  61 SE5       29.82
NOGALES        CLEAR     41  19  41 N6        29.85S
SIERRA VISTA   PTCLDY    43  19  39 S3        29.87S
SAFFORD        CLEAR     43  29  57 SE13      29.84R
$$

AZZ020-021-025-026-031-271400-
SOUTHWEST ARIZONA

CITY           SKY/WX    TMP DP  RH WIND       PRES   REMARKS
YUMA           CLEAR     55  32  41 E7        29.72R
$$

CAZ031-033-041-043-047-048-061-271400-
SOUTHERN CALIFORNIA

CITY           SKY/WX    TMP DP  RH WIND       PRES   REMARKS
DOWNTOWN L.A.  CLOUDY   N/A N/A N/A E3        29.82R
L.A. AIRPORT   MOCLDY    53  51  93 E3        29.83R
SAN DIEGO      MOCLDY    58  49  72 E7        29.85S
BURBANK        CLOUDY    53  48  83 NW3       29.82R
ONTARIO        MOCLDY    49  47  93 NW5       29.82S
RIVERSIDE      CLOUDY    49  45  86 CALM      29.83S
PALM SPRINGS   CLEAR     53  44  71 S5        29.72S
EL CENTRO NAS  CLEAR     51  33  50 NW3       29.71S
IMPERIAL       CLEAR     52  39  61 CALM      29.70F
BLYTHE         CLEAR     51  32  48 W5        29.71S
NEEDLES        PTCLDY    55  31  39 NW7       29.74R
$$

NVZ020-UTZ003-271400-
SOUTHERN NEVADA-UTAH

CITY           SKY/WX    TMP DP  RH WIND       PRES   REMARKS
LAS VEGAS      PTCLDY    48  27  44 S9        29.74F
SALT LAKE CITY CLOUDY    31  25  78 S8        29.84S WCI  23
$$

NMZ009-TXZ055-271400-
NEW MEXICO-WEST TEXAS

CITY           SKY/WX    TMP DP  RH WIND       PRES   REMARKS
ALBUQUERQUE    CLOUDY    23  16  74 E18       29.96F WCI   9
EL PASO        CLOUDY    31  22  69 E7        30.02R WCI  24
$$


........................KEY........................
SKY/WX - SKY CONDITION/WEATHER
TMP    - TEMPERATURE IN FAHRENHEIT
DP     - DEW POINT IN FAHRENHEIT
RH     - RELATIVE HUMIDITY IN PERCENT
WIND   - DIRECTION AND SPEED IN MILES PER HOUR (MPH)
VRB    - VARIABLE WIND DIRECTION
PRES   - MEAN SEA LEVEL PRESSURE IN INCHES OF MERCURY
         F - FALLING PRESSURE   R - RISING PRESSURE
         S - STEADY PRESSURE
VSB    - VISIBILITY IN MILES
HX     - HEAT INDEX IN FAHRENHEIT
WCI    - WIND CHILL INDEX IN FAHRENHEIT
TC     - TEMPERATURE IN CELSIUS WHICH IS ALSO KNOWN AS
         TEMPERATURE IN CENTIGRADE
AFB    - AIR FORCE BASE
         LUKE AFB IS LUKE AIR FORCE BASE
         DAVIS-MONTHAN IS DAVIS-MONTHAN AIR FORCE BASE
NAS    - NAVAL AIR STATION
         EL CENTRO NAS IS EL CENTRO NAVAL AIR STATION
N/A    - NOT AVAILABLE



USA.gov is the U.S. government's official web portal to all federal, state and local government web resources and services.